| time (UTC) | temp F | wind direction | speed MPH | gust MPH | rain 1hr in | rain 24hr in | rain mn in | humidity % | barometer mb |
| 20260904003716 | 68 | 231 | 0.0 | 0.0 | 0.00 | 0.00 | 0.00 | 79 | 1019.2 |
| 20260904000716 | 68 | 228 | 0.0 | 0.0 | 0.00 | 0.00 | 0.00 | 79 | 1019.3 |
| 20260904000218 | 68 | 228 | 0.0 | 0.0 | 0.00 | 0.00 | 0.00 | 79 | 1019.4 |
| 20260903233216 | 69 | 228 | 0.0 | 0.0 | 0.00 | 0.00 | 0.00 | 79 | 1019.4 |
| 20260903230216 | 69 | 228 | 0.0 | 0.0 | 0.00 | 0.00 | 0.00 | 79 | 1019.6 |
| 20260903223716 | 70 | 228 | 0.0 | 0.0 | 0.00 | 0.00 | 0.00 | 78 | 1019.5 |
| 20260903220717 | 72 | 228 | 0.0 | 0.0 | 0.00 | 0.00 | 0.00 | 77 | 1019.2 |
| 20260903213716 | 73 | 314 | 0.0 | 0.0 | 0.00 | 0.00 | 0.00 | 77 | 1019.3 |
| 20260903210215 | 74 | 64 | 0.0 | 0.0 | 0.00 | 0.00 | 0.00 | 77 | 1019.5 |
| 20260903200715 | 77 | 87 | 0.0 | 1.0 | 0.00 | 0.00 | 0.00 | 74 | 1019.1 |
| 20260903200216 | 77 | 107 | 0.0 | 6.0 | 0.00 | 0.00 | 0.00 | 74 | 1019.4 |
| 20260903193716 | 78 | 98 | 0.0 | 0.0 | 0.00 | 0.00 | 0.00 | 73 | 1018.9 |
| 20260903190716 | 80 | 96 | 1.0 | 3.0 | 0.00 | 0.00 | 0.00 | 71 | 1018.3 |
| 20260903190216 | 80 | 108 | 0.0 | 3.0 | 0.00 | 0.00 | 0.00 | 71 | 1018.5 |
| 20260903183215 | 81 | 89 | 0.0 | 2.0 | 0.00 | 0.00 | 0.00 | 68 | 1017.9 |
| 20260903173715 | 85 | 184 | 1.0 | 3.0 | 0.00 | 0.00 | 0.00 | 63 | 1017.7 |
| 20260903173215 | 85 | 163 | 0.0 | 10.0 | 0.00 | 0.00 | 0.00 | 62 | 1017.7 |
| 20260903170215 | 89 | 216 | 2.0 | 9.0 | 0.00 | 0.00 | 0.00 | 58 | 1017.3 |
| 20260903163215 | 90 | 216 | 1.0 | 10.0 | 0.00 | 0.00 | 0.00 | 56 | 1017.2 |
| 20260903160215 | 91 | 225 | 3.0 | 15.0 | 0.00 | 0.00 | 0.00 | 51 | 1017.2 |
| 20260903153215 | 92 | 138 | 3.0 | 16.0 | 0.00 | 0.00 | 0.00 | 49 | 1017.2 |
| 20260903150215 | 92 | 113 | 8.0 | 16.0 | 0.00 | 0.00 | 0.00 | 46 | 1017.1 |
| 20260903133714 | 93 | 96 | 7.0 | 13.0 | 0.00 | 0.00 | 0.00 | 41 | 1017.4 |
| 20260903133214 | 93 | 97 | 11.0 | 16.0 | 0.00 | 0.00 | 0.00 | 41 | 1017.5 |
| 20260903130715 | 93 | 110 | 13.0 | 20.0 | 0.00 | 0.00 | 0.00 | 41 | 1017.6 |
| 20260903130214 | 92 | 94 | 6.0 | 18.0 | 0.00 | 0.00 | 0.00 | 41 | 1017.5 |
| 20260903113714 | 91 | 86 | 4.0 | 10.0 | 0.00 | 0.00 | 0.00 | 42 | 1018.2 |
| 20260903113215 | 91 | 101 | 7.0 | 16.0 | 0.00 | 0.00 | 0.00 | 42 | 1018.2 |
| 20260903103215 | 87 | 97 | 3.0 | 7.0 | 0.00 | 0.00 | 0.00 | 49 | 1019.5 |
| 20260903100214 | 85 | 64 | 3.0 | 8.0 | 0.00 | 0.00 | 0.00 | 54 | 1019.9 |
| 20260903090714 | 82 | 77 | 0.0 | 0.0 | 0.00 | 0.00 | 0.00 | 59 | 1020.2 |
| 20260903090214 | 82 | 86 | 0.0 | 0.0 | 0.00 | 0.00 | 0.00 | 62 | 1020.1 |
| 20260903083714 | 79 | 96 | 0.0 | 0.0 | 0.00 | 0.00 | 0.00 | 66 | 1020.2 |
| 20260903073215 | 74 | 137 | 0.0 | 0.0 | 0.00 | 0.00 | 0.00 | 72 | 1020.5 |
| 20260903070215 | 69 | 250 | 0.0 | 0.0 | 0.00 | 0.00 | 0.00 | 78 | 1020.7 |
| 20260903060715 | 63 | 263 | 0.0 | 0.0 | 0.00 | 0.00 | 0.00 | 80 | 1020.8 |
| 20260903060215 | 62 | 262 | 0.0 | 0.0 | 0.00 | 0.00 | 0.00 | 80 | 1020.6 |
| 20260903050715 | 62 | 221 | 0.0 | 0.0 | 0.00 | 0.00 | 0.00 | 80 | 1020.0 |
| 20260903050215 | 62 | 221 | 0.0 | 0.0 | 0.00 | 0.00 | 0.00 | 80 | 1019.8 |
| 20260903040715 | 63 | 244 | 0.0 | 0.0 | 0.00 | 0.00 | 0.00 | 80 | 1019.7 |
| 20260903040215 | 63 | 259 | 0.0 | 0.0 | 0.00 | 0.00 | 0.00 | 80 | 1019.6 |
| 20260903033714 | 63 | 255 | 0.0 | 0.0 | 0.00 | 0.00 | 0.00 | 80 | 1019.8 |
| 20260903030714 | 63 | 244 | 0.0 | 0.0 | 0.00 | 0.00 | 0.00 | 80 | 1020.0 |
| 20260903023715 | 63 | 254 | 0.0 | 0.0 | 0.00 | 0.00 | 0.00 | 80 | 1020.1 |
| 20260903023214 | 63 | 254 | 0.0 | 0.0 | 0.00 | 0.00 | 0.00 | 80 | 1020.1 |
| 20260903020714 | 64 | 254 | 0.0 | 0.0 | 0.00 | 0.00 | 0.00 | 80 | 1020.0 |
| 20260903013214 | 65 | 254 | 0.0 | 0.0 | 0.00 | 0.00 | 0.00 | 79 | 1019.9 |